Vertical_Velocity
-1 -1 -1 -1 -0 -0 -0 0 0 1 1 1 0 0 0 -0 -0 -0 -0 -0 -0 -0 -0 -0 -1 -1 -1 -0 -0 -0 -0 -0 -0 -0 -0 -0 -0 -0 -0 -0 -0 -0 -0 -0 -1 -1 -1 -0 -0 0 0 -0 -1 -1 -1 -1 -1 -1 -1 -1 -1 -1 -1 -1 -1 -1 -1 -0 -0 -0 -0 -0 -0 -0 -0 -1 -1 -1 -1 -1 -1 -1 -1 -1 -0 -0 -1 -1 -1 -1 -0 -1 -1 -1 -1 -1 -1 -1 -1 -1 -1 -1 -1
-1 -1 -1 -1 -0 -0 -0 0 0 0 0 0 0 0 0 0 0 -0 -0 -0 -0 -0 -0 -0 -1 -1 -1 -0 -0 -0 -0 -0 -0 -0 -0 -0 -0 -0 -0 -0 -0 0 0 -0 -0 -1 -1 -0 -0 0 0 -0 -1 -1 -2 -1 -1 -0 -1 -1 -1 -1 -1 -1 -1 -1 -0 -0 -0 -0 -0 -0 -0 -0 -0 -1 -1 -1 -1 -1 -1 -1 -1 -1 -0 -0 -0 -0 -1 -1 -1 -1 -1 -1 -1 -1 -1 -1 -1 -1 -1 -1 -1
-1 -1 -1 -1 -0 -0 -0 -0 0 0 0 0 0 0 0 0 0 0 -0 -0 -0 -0 -0 -0 -0 -1 -1 -0 -0 -0 -0 -0 -0 -0 -0 -0 -0 -0 -0 -0 0 0 0 -0 -0 -0 -0 -0 -0 -0 0 -0 -1 -1 -2 -1 -1 -0 -0 -0 -1 -1 -1 -1 -1 -1 -1 -0 -0 -0 -0 -0 -0 -0 -0 -0 -0 -0 -0 -1 -1 -1 -0 -0 -0 -0 -0 -0 -1 -1 -1 -1 -1 -0 -0 -1 -1 -1 -1 -1 -1 -1 -1
-1 -1 -1 -1 -0 -0 0 0 0 0 1 0 0 0 0 0 0 -0 -0 -0 -0 -0 -0 -0 -0 -0 -1 -1 -0 -0 -0 -0 -0 -0 -0 -0 -0 -0 0 0 0 0 0 0 -0 -0 -0 -0 -0 0 0 -0 -1 -1 -2 -1 -1 -1 -0 -0 -0 -1 -1 -1 -1 -1 -1 -1 -0 -0 -0 -0 -0 -0 -0 -0 -0 -0 -0 -0 -0 -0 -0 -0 -0 -0 -0 -1 -1 -1 -1 -1 -1 -0 -0 -0 -1 -1 -1 -1 -1 -1 -1
-1 -0 -1 -0 0 0 1 1 1 1 1 0 0 0 0 -0 -0 -0 -0 -0 -1 -1 -0 -0 -0 -0 -0 -1 -1 -0 -0 -0 -0 -1 -1 -1 -0 -0 0 0 0 0 0 0 0 -0 0 -0 0 0 0 0 -0 -1 -1 -1 -1 -1 -0 -0 -0 -1 -1 -1 -1 -1 -1 -1 -1 -0 -0 -0 0 0 0 0 -0 -0 -1 -1 -1 -1 -0 -0 -0 -0 -0 -1 -1 -1 -1 -1 -1 -0 -0 -0 -0 -0 -1 -1 -1 -1 -1
-0 -0 -0 -0 0 1 1 1 1 1 1 1 0 0 -0 -0 -0 -0 -1 -1 -1 -1 -0 -0 -0 -0 -0 -0 -0 -0 -0 -0 -0 -0 -1 -1 -1 -0 -0 0 0 0 0 0 0 0 0 0 0 0 1 1 0 -0 -1 -1 -1 -1 -0 -0 -0 -0 -1 -0 -0 -0 -0 -0 -0 -0 -0 0 0 1 1 0 0 -0 -1 -1 -1 -1 -1 -1 -0 -0 -1 -1 -1 -1 -1 -1 -1 -1 -0 -0 -0 -0 -0 -0 -1 -1 -1
-0 -0 0 0 1 1 1 1 1 1 1 1 1 1 0 -0 -1 -1 -1 -1 -1 -1 -0 -0 -0 -0 -0 -0 -0 -0 -0 -0 -0 -0 -0 -1 -1 -1 -0 -0 -0 -0 -0 0 0 0 0 0 0 0 1 1 1 0 -1 -1 -1 -1 -1 -0 -0 -0 -0 -0 -0 -0 -0 -0 -0 -0 0 0 1 1 1 1 0 -0 -0 -1 -1 -1 -1 -1 -1 -1 -1 -1 -1 -1 -1 -1 -1 -1 -0 -0 -0 -0 -0 -0 -0 -1 -1
-0 0 0 0 1 1 1 1 1 1 1 1 1 1 0 -0 -1 -1 -1 -1 -1 -0 -0 -0 -0 -0 -0 -0 -0 -0 -0 -0 -0 -0 -0 -0 -1 -1 -0 -0 -0 -0 -0 0 0 0 0 0 0 0 1 1 1 1 -0 -1 -1 -1 -1 -0 -0 -0 -0 -0 -0 0 0 -0 -0 -0 0 0 1 1 1 1 0 0 -0 -1 -1 -1 -1 -1 -1 -1 -1 -1 -1 -1 -1 -1 -1 -1 -0 -0 -0 -0 -0 -0 -0 -0 -0
0 1 0 0 0 0 1 1 0 0 1 1 1 1 0 -0 -0 -1 -1 -0 -0 -0 -0 -0 -0 0 -0 -0 -0 -0 -0 -0 0 0 -0 -0 -0 -1 -1 -0 -0 -0 -0 -0 0 0 0 0 0 0 1 1 1 1 0 -0 -0 -1 -1 -0 -0 -0 -0 -0 -0 0 0 -0 -0 0 0 0 1 1 1 1 1 0 0 -0 -0 -1 -1 -1 -1 -1 -1 -1 -1 -1 -1 -1 -1 -1 -1 -0 -0 -0 -0 -0 -0 -0 -0
0 0 -0 -0 -0 0 0 0 -0 -0 0 1 1 1 1 0 0 0 -0 -0 -0 -0 -0 -0 -0 -0 -0 0 0 0 0 0 0 0 0 -0 -0 -0 -0 -0 -0 -0 -0 -0 -0 0 0 0 0 0 1 1 1 1 1 0 -0 -0 -0 -0 -0 -0 -0 -0 -0 -0 -0 -0 0 0 0 1 1 1 1 1 1 0 0 -0 -0 -1 -1 -1 -1 -1 -1 -1 -1 -1 -1 -1 -1 -0 -0 -1 -1 -0 -0 -0 -0 -0 -0
0 0 -0 -0 -0 0 0 -0 -0 -0 -0 -0 -0 -0 -0 -0 -0 -0 -0 -0 -0 -0 -0 -0 -0 -0 0 0 0 1 1 0 0 0 0 0 0 0 -0 -0 -0 -0 -0 -0 -0 -0 -0 0 0 0 1 1 1 1 1 1 0 -0 -0 -0 -0 -0 -0 -0 -0 -0 -0 -0 -0 0 0 1 1 1 1 1 1 0 0 0 -0 -0 -1 -1 -1 -1 -1 -1 -1 -1 -1 -1 -1 -0 -0 -1 -1 -1 -0 -0 -0 -0 -0
0 0 0 0 0 0 0 -0 -0 -0 -0 -0 -0 -1 -1 -0 -0 -0 -0 -0 -0 -0 -0 0 0 0 0 0 1 1 1 1 0 0 0 0 0 0 0 0 0 -0 -0 -0 -0 -0 -0 -0 0 0 0 1 1 1 1 1 1 0 0 -0 -0 -0 -0 -0 -0 -1 -1 -1 -0 0 0 1 1 1 1 1 1 1 1 0 0 -0 -0 -0 -1 -1 -1 -0 -0 -1 -1 -1 -1 -1 -1 -1 -1 -1 -1 -1 -0 -0 -0
0 0 0 0 0 0 0 0 -0 -0 -0 -0 -0 -0 -0 -0 -0 -0 -0 0 0 0 0 0 1 1 1 1 1 1 1 1 1 0 0 0 0 0 0 0 0 0 0 -0 -0 -0 -0 -0 -0 -0 -0 0 1 1 2 1 1 1 0 0 0 0 0 -0 -0 -1 -1 -0 -0 -0 0 0 1 1 1 1 1 1 1 1 0 0 -0 -0 -0 -0 -0 -0 -0 -0 -0 -0 -0 -0 -1 -1 -1 -1 -1 -1 -1 -1 -1
-0 -0 0 0 0 0 0 0 0 0 0 -0 -0 -0 0 0 0 1 1 1 0 0 0 0 1 1 1 1 1 1 1 1 1 1 1 0 0 0 0 0 0 0 0 0 0 0 -0 -0 -0 -0 -0 -0 0 1 1 1 1 1 0 0 0 0 0 -0 -0 -0 -1 -0 -0 -0 -0 0 0 1 1 1 1 1 1 1 1 1 0 0 0 -0 -0 -0 -0 -0 -0 -0 -0 -0 -0 -1 -1 -1 -1 -1 -1 -1 -1
-0 0 0 0 0 1 1 1 0 0 0 0 -0 -0 -0 0 0 1 1 1 0 0 0 0 0 1 1 1 1 1 1 1 1 1 1 1 1 0 0 1 1 1 1 1 0 0 -0 -0 -0 -0 -0 -0 -0 0 1 1 1 1 0 0 0 0 0 0 -0 -0 -0 -0 -0 -0 0 0 1 1 1 1 1 1 1 1 1 1 1 1 1 0 0 -0 -0 -0 -0 -0 -0 -0 -0 -0 -0 -1 -1 -1 -1 -1 -1
0 0 0 0 0 0 0 0 0 0 0 -0 -0 -0 -0 -0 -0 0 0 0 0 0 -0 -0 0 0 1 1 1 1 1 1 1 1 1 1 1 1 1 1 1 1 1 1 1 0 0 -0 -0 -0 -0 -0 -0 -0 0 1 1 1 0 0 0 0 0 0 -0 -0 -0 -0 0 0 0 1 1 1 1 1 1 1 1 1 1 1 1 1 1 1 1 0 0 0 0 -0 -0 -0 -0 -0 -0 -0 -1 -1 -1 -1 -1
0 0 0 0 0 0 0 0 0 -0 -0 -0 -0 -0 -0 -0 -0 -0 0 0 0 0 -0 0 0 0 0 0 1 1 1 1 1 1 1 1 1 1 1 1 1 1 1 1 1 1 0 0 -0 -0 -0 -1 -1 -0 -0 -0 0 0 0 0 0 0 0 0 0 -0 -0 -0 0 0 1 1 1 1 1 1 1 1 1 1 1 1 1 1 1 1 1 1 1 1 0 0 0 0 -0 -0 -0 -0 -0 -0 -1 -1 -1
1 1 1 1 0 0 0 0 0 -0 -0 -0 -0 -0 -0 -0 -0 0 0 0 0 0 0 0 0 0 0 0 0 0 0 0 0 1 1 1 1 1 1 1 1 1 1 1 1 1 1 0 0 -0 -0 -1 -1 -1 -1 -0 -0 -0 -0 -0 -0 -0 0 0 0 0 -0 0 0 0 1 0 1 1 1 1 1 1 1 1 1 1 1 1 1 1 1 1 1 1 1 1 1 0 0 0 0 0 -0 -0 -0 -0 -1
1 1 1 1 1 1 0 0 0 0 0 0 0 0 0 0 0 0 1 0 1 1 1 1 1 1 1 1 1 0 0 0 0 0 0 0 1 1 1 1 1 1 1 1 1 1 1 0 0 0 -0 -0 -1 -1 -1 -1 -0 -0 -0 -0 -0 -0 -0 0 0 0 0 0 0 0 0 0 1 1 1 1 1 1 1 1 1 1 1 1 1 1 1 1 1 1 1 1 1 1 1 1 1 0 0 0 0 -0 -0
0 0 1 1 1 1 1 1 1 1 1 1 1 1 1 1 1 1 1 1 1 1 1 1 1 1 1 1 1 1 0 0 0 -0 -0 -0 0 0 1 1 1 1 1 1 1 1 1 0 0 0 -0 -0 -1 -1 -1 -1 -1 -1 -1 -1 -0 -0 -0 -0 0 0 0 0 0 0 0 0 0 1 1 1 1 1 1 1 1 1 1 1 1 2 2 2 2 2 2 2 1 1 1 1 1 1 1 1 0 0 0
0 0 0 0 1 1 1 1 1 1 1 1 1 1 1 1 1 1 1 1 1 1 1 1 1 1 1 1 1 1 1 0 0 -0 -0 -0 -0 -0 0 0 0 0 0 0 0 0 0 0 0 0 -0 -0 -0 -1 -1 -1 -1 -1 -1 -1 -0 -0 -0 -0 0 0 0 0 0 0 0 0 0 0 1 1 1 1 1 1 1 1 1 1 1 2 2 2 2 2 2 2 2 2 2 1 1 1 1 1 1 1 1
-0 -0 -0 0 0 1 1 1 1 1 1 1 1 1 1 1 1 1 1 1 1 1 1 1 1 1 1 1 1 1 1 1 0 0 0 -0 -0 -0 -0 -0 -0 -0 -0 -0 0 0 0 0 -0 -0 -0 -0 -0 -0 -1 -1 -1 -1 -1 -1 -0 -0 -0 -0 0 0 0 0 0 0 0 0 0 0 0 1 0 0 1 1 1 1 1 1 1 1 2 2 2 2 2 2 2 2 2 2 2 1 1 1 1 1 1
-0 -0 -0 0 0 0 0 0 0 0 0 0 0 1 1 1 1 1 1 1 1 1 1 1 1 1 1 1 1 1 1 1 1 1 0 0 -0 -0 -0 -0 -0 -0 -0 -0 -0 -0 -0 -0 -0 -0 -0 -0 -0 -0 -0 -0 -0 -0 -0 -0 -0 -0 -0 0 0 0 0 0 0 0 0 0 0 0 0 0 0 0 1 1 1 1 1 1 1 1 1 2 2 2 2 2 2 2 2 2 2 2 2 1 1 1 1
-0 -0 0 0 0 0 0 0 0 0 -0 -0 0 0 1 1 1 1 1 1 1 1 1 0 0 0 0 0 0 0 1 1 1 1 0 0 0 -0 -0 -0 -0 -0 -0 -1 -1 -0 -0 -0 -0 -0 -0 -0 -0 -0 -0 -0 -0 -0 -0 0 0 0 0 0 0 0 0 0 0 0 1 1 0 0 0 1 1 1 0 1 1 1 1 1 1 1 1 1 2 2 2 2 2 2 2 2 2 2 2 2 2 1 1
-0 0 0 0 1 1 1 1 0 0 0 0 0 1 1 1 1 1 1 1 1 1 1 0 0 0 -0 -0 -0 0 0 0 0 0 0 0 0 0 0 -0 -0 -0 -0 -0 -0 -0 -0 -0 -0 -0 -0 -0 -0 -0 -0 0 0 0 0 1 1 1 1 1 1 1 1 0 0 0 1 1 1 1 1 1 1 1 0 1 1 1 1 1 1 1 1 1 1 2 2 2 2 2 2 2 2 2 2 2 2 2 1
-0 0 0 0 1 1 1 1 1 1 1 1 1 1 1 1 1 1 1 1 1 1 1 0 0 0 -0 -0 0 0 -0 -0 0 0 0 0 0 0 0 0 0 -0 -0 -0 -0 -0 -0 -0 -0 -0 -0 -0 -0 -0 0 1 1 1 1 1 1 1 1 1 1 1 1 1 1 0 0 0 1 1 1 1 1 1 1 1 1 1 1 1 1 1 1 1 1 1 2 2 2 2 2 2 2 2 2 2 2 2 2
-0 -0 0 0 1 1 1 1 2 2 2 2 1 1 1 1 1 1 1 1 1 1 1 1 0 -0 -0 -0 0 0 0 0 0 0 1 0 0 0 0 1 1 0 -0 -0 -0 -0 0 0 0 0 0 -0 -0 -0 0 1 1 1 1 1 1 2 2 2 2 2 2 1 1 1 0 0 0 1 1 1 1 1 1 1 1 0 0 0 1 1 1 1 1 1 1 1 1 1 2 2 2 2 2 2 2 2 2
-0 -0 0 0 1 1 1 1 2 2 2 1 1 1 0 1 1 1 1 0 0 0 0 0 0 -0 -0 -0 -0 0 1 0 0 1 1 1 1 1 1 1 1 1 0 0 0 0 0 0 0 0 0 0 0 0 1 1 1 1 1 1 1 2 2 2 2 2 2 2 1 1 0 0 0 1 1 1 1 1 1 1 1 1 0 0 0 0 1 1 1 1 1 1 1 1 1 2 2 2 2 2 2 2 2
-0 -0 -0 0 0 1 1 1 1 1 1 1 1 1 0 -0 -0 0 1 0 -0 -0 -0 -0 0 -0 -0 -0 -0 -0 0 0 0 1 1 1 1 1 1 1 2 2 1 0 0 0 1 1 0 0 0 0 0 0 1 1 1 1 1 1 1 1 2 2 2 2 2 2 2 1 1 0 -0 -0 0 1 1 1 1 1 1 1 0 0 0 0 0 0 0 0 0 1 1 1 1 1 1 2 2 2 2 2 2
0 -0 -0 0 0 0 1 1 1 1 1 1 1 1 1 0 -0 -0 0 0 -0 -0 -1 -0 -0 0 0 -0 -0 -0 0 0 0 1 1 1 1 1 1 1 2 2 2 1 1 1 1 1 1 0 -0 0 0 0 1 1 2 2 1 1 1 1 1 2 2 2 2 2 2 2 1 1 0 -0 -0 0 0 1 0 0 0 0 0 0 0 -0 -0 -0 0 0 -0 -0 0 0 1 1 1 1 1 1 2 2 2
1 1 0 0 1 1 1 1 1 2 2 1 1 1 2 2 1 0 0 0 0 -0 -1 -0 -0 0 0 0 0 0 1 0 -0 0 1 1 1 1 1 1 1 2 2 1 1 1 1 1 0 0 -0 0 0 1 1 1 1 2 2 1 1 1 1 1 1 1 1 2 2 2 1 1 0 0 -0 -0 -0 -0 -0 -0 -0 -0 -0 -0 0 -0 -0 -0 -0 -0 -0 -0 -0 -0 -0 -0 0 1 1 1 1 1 1
0 1 1 1 1 2 2 1 2 2 3 2 2 2 3 2 2 1 1 1 1 1 1 0 0 0 -0 -0 0 1 1 -0 -0 -0 1 1 1 1 0 -0 -0 1 2 1 1 1 1 0 -0 -0 0 -0 -0 0 0 0 1 1 2 2 1 1 0 0 1 1 1 1 1 1 1 1 1 0 -0 -0 -0 -0 -0 -1 -1 -0 -0 -0 1 1 1 0 -0 -0 -0 -0 -1 -1 -1 -1 -1 -0 -0 0 0 1 1
-0 0 1 1 1 2 2 2 2 3 3 3 2 2 2 2 2 1 1 1 1 1 1 1 1 1 0 -0 0 1 1 0 -0 -0 -0 1 1 1 1 -0 -1 -0 0 -0 0 1 1 0 -0 -0 0 -0 -1 -1 -0 -1 -0 0 1 1 1 1 0 -0 -0 -0 0 0 1 1 1 1 1 1 0 -0 -0 -1 -1 -1 -1 -1 -1 0 1 1 1 1 0 -0 -0 -0 -0 -1 -1 -1 -1 -1 -1 -0 -0 -0 0
-1 -1 -0 0 1 2 2 2 3 3 3 3 3 2 2 2 2 2 1 1 1 1 2 2 2 1 1 -0 -0 0 1 1 1 -0 -1 0 1 2 1 0 0 -0 -0 -1 -0 0 1 -0 -0 -0 0 -0 -1 -1 -1 -2 -2 -2 -1 -0 1 1 0 -0 -0 -0 -0 -0 0 1 1 1 1 1 1 0 -0 -1 -1 -1 -1 -2 -2 -1 -0 1 2 1 1 0 -0 -0 0 0 -0 -0 -0 -1 -1 -1 -1 -1 -0
-1 -1 -1 -1 -0 1 1 2 3 3 3 3 3 2 2 2 2 1 1 0 0 0 1 2 1 1 2 1 -0 -0 1 1 1 -0 -1 -1 1 2 1 1 1 1 -0 -1 -0 -0 -0 -1 -0 -0 0 -0 -0 -1 -2 -3 -3 -3 -3 -2 -1 -0 -0 -0 -1 -1 -1 -0 -0 0 0 1 1 1 1 1 1 0 -0 -1 -1 -2 -2 -2 -1 1 2 3 2 1 -0 -0 0 1 1 1 0 -0 -0 -0 -1 -1 -1
-0 -1 -1 -1 -1 -0 0 1 2 2 2 2 1 1 1 1 1 0 -0 -0 -0 -0 1 0 0 0 1 1 -0 -1 0 1 -0 -1 -1 -1 -0 1 0 1 1 1 -0 -0 -0 -0 -1 -1 -0 0 0 0 0 -0 -1 -2 -3 -3 -4 -3 -2 -2 -1 -1 -1 -1 -1 -1 -1 -1 -1 -0 -0 0 1 1 1 1 0 -0 -1 -1 -1 -2 -2 -2 -1 2 3 2 1 1 1 1 1 2 2 1 1 0 -0 -0 -1
1 0 0 -0 -1 -1 -1 0 1 0 -0 -1 -1 -1 -1 -1 -1 -0 -1 -1 -0 -0 0 -0 -0 -0 1 0 -0 -0 1 0 -1 -2 -1 -1 -1 -0 -0 0 1 1 -0 0 0 -0 -1 -1 -0 1 0 1 1 1 1 0 -1 -3 -3 -3 -3 -3 -3 -2 -2 -1 -1 -1 -2 -2 -2 -1 -1 -1 -0 0 0 1 1 0 0 -0 -1 -1 -1 -2 -3 -1 1 2 2 2 2 2 2 1 1 1 1 1 1 0 -0
1 0 0 -0 -0 -1 -1 -1 -1 -1 -2 -2 -2 -2 -2 -2 -2 -1 -1 -1 -0 0 0 -0 -0 -0 -0 -0 -0 0 1 0 -1 -1 -1 -0 -1 -1 -0 0 -0 -0 -1 0 0 -0 -2 -1 0 0 0 1 1 1 2 1 0 -0 -1 -2 -3 -3 -3 -3 -2 -1 -1 -1 -1 -2 -2 -2 -2 -2 -1 -1 -0 -0 0 0 0 0 0 -0 -0 -1 -2 -2 -2 -1 0 2 3 3 3 2 1 1 2 1 1 1 1
0 -0 -1 -1 -1 -1 -1 -1 -1 -2 -3 -3 -3 -2 -2 -3 -2 -1 -1 -1 -0 0 1 -0 -1 -0 -0 -0 -1 -1 1 1 -0 -1 -0 -0 -0 -0 1 0 -1 -1 -1 -1 -1 -1 -1 -1 -0 -0 -0 -0 0 1 1 1 1 1 1 -1 -2 -2 -3 -3 -2 -1 -1 -1 -1 -1 -1 -2 -2 -2 -2 -1 -1 -1 -1 -0 -0 -0 -0 -0 -0 -0 -1 -1 -1 -2 -2 0 2 3 3 2 2 3 4 2 2 3 2
-1 -1 -2 -2 -2 -1 -1 -1 -1 -1 -2 -2 -2 -2 -2 -2 -3 -2 -2 -2 -2 -1 0 -1 -1 -2 -1 -0 -1 -2 -0 0 -0 -1 -0 0 -0 -0 1 1 -0 -1 -1 -1 -2 -2 -2 -2 -1 -1 -1 -1 -1 -1 -2 -1 0 1 1 -0 -1 -1 -1 -1 -1 -1 -2 -2 -1 -0 0 0 -0 -1 -1 -1 -1 -1 -1 -1 -1 -1 -1 -0 -0 -0 -0 -0 -1 -1 -1 -1 -1 0 2 2 2 2 2 1 2 2 2
-1 -2 -2 -2 -2 -2 -1 -1 -1 -1 -1 -1 -1 -1 -1 -1 -2 -2 -2 -3 -3 -2 -1 -1 -2 -3 -3 -1 -1 -2 -2 -1 -1 -2 -2 -1 -1 -1 -0 -0 -1 -1 -1 -1 -2 -3 -3 -3 -3 -3 -3 -3 -4 -4 -5 -2 -1 -0 0 -0 -0 -0 -0 -1 -1 -1 -2 -2 -2 -0 1 1 1 1 0 -0 -1 -1 -1 -2 -1 -1 -1 -1 -0 -0 -0 -0 -0 -1 -1 -1 -1 -1 -0 0 1 1 -0 0 0 0 0
-2 -2 -2 -2 -2 -1 -1 -2 -2 -2 -2 -2 -1 -1 -1 -1 -1 -1 -2 -2 -3 -3 -2 -1 -2 -4 -5 -4 -3 -3 -4 -3 -3 -3 -5 -5 -4 -4 -4 -3 -3 -2 -1 -2 -3 -4 -3 -3 -4 -4 -4 -4 -5 -6 -5 -3 -1 -1 -0 -1 -0 0 0 -0 -0 -1 -1 -2 -1 -1 -0 1 2 2 2 1 0 -0 -1 -1 -1 -1 -1 -1 -1 -0 -0 -0 -0 -0 -1 -1 -1 -1 -1 -0 -0 -0 -0 -0 0 -0 -0
-2 -2 -2 -2 -2 -1 -0 -1 -1 -2 -2 -2 -2 -1 -1 -1 -1 -1 -1 -2 -3 -3 -2 -0 -1 -3 -4 -5 -4 -4 -4 -4 -3 -2 -4 -5 -6 -5 -4 -4 -4 -3 -2 -2 -3 -3 -1 -2 -2 -3 -3 -4 -5 -5 -3 -2 -1 -1 -0 -1 -1 -1 -0 1 1 0 -0 -0 -1 -1 -2 -1 0 1 2 2 1 1 -0 -1 -1 -1 -1 -1 -0 -0 -0 -0 -0 -0 -0 -0 -0 -0 -0 -0 -0 -0 -1 -0 -0 -0 -0
-2 -2 -3 -2 -2 -1 -0 -0 -1 -1 -2 -2 -2 -2 -1 -1 -1 -1 -2 -2 -3 -3 -3 -0 -0 -1 -4 -4 -3 -3 -2 -2 -2 -1 -1 -3 -4 -4 -3 -3 -3 -2 -2 -1 -1 -1 -0 -0 -1 -1 -2 -3 -4 -4 -2 -1 -1 -0 0 -1 -1 -1 0 1 2 2 1 1 -0 -1 -2 -2 -1 0 1 2 2 1 1 0 -0 -0 -0 -0 -0 -0 0 0 0 -0 -0 -0 -0 -0 -0 -0 -0 -0 -1 -0 -0 -0 -0
-3 -3 -3 -2 -2 -1 0 0 -0 -1 -1 -1 -1 -1 -1 -1 -1 -1 -2 -2 -2 -3 -4 -1 -0 -1 -3 -4 -4 -3 -2 -2 -2 -2 -2 -3 -3 -3 -3 -2 -1 -1 -2 -2 -1 -1 -1 -1 -1 -1 -2 -3 -3 -3 -3 -2 -1 -0 -0 -2 -1 -0 0 2 3 3 3 2 1 -1 -2 -1 -1 -0 0 1 1 0 0 1 1 1 1 0 0 0 0 0 0 0 0 0 0 0 -0 -0 -0 -0 -1 -0 -0 -0 -0
-3 -2 -2 -1 -1 0 1 1 1 -0 -1 -1 -1 -1 -0 0 -0 -1 -1 -1 -1 -1 -2 -2 -1 -1 -1 -2 -3 -4 -3 -2 -2 -3 -4 -5 -5 -5 -5 -3 -1 -0 -2 -2 -2 -1 -2 -2 -3 -3 -2 -2 -2 -2 -2 -1 -0 0 -1 -2 -1 -0 -1 1 3 4 3 2 1 -0 -1 -0 0 1 1 -0 -1 -1 -0 1 2 2 1 1 1 1 1 1 1 1 1 1 1 1 0 0 -0 -0 -0 -0 -0 -0 -0
-2 -1 -1 -0 0 1 1 2 1 -0 -1 -1 -1 -1 -0 0 1 0 -0 -0 -1 -1 -0 -1 -2 -2 -0 -0 -1 -2 -3 -2 -1 -3 -6 -6 -5 -5 -5 -4 -2 -0 -1 -2 -2 -1 -1 -2 -3 -3 -2 -1 -1 -1 -1 -0 -0 -0 -2 -1 -0 -0 -1 1 2 3 3 1 -0 -1 0 1 1 1 1 -0 -1 -2 -1 -0 1 2 2 2 2 2 1 1 0 0 0 1 1 1 1 1 0 0 -0 -0 -0 -0 -1
-0 -0 -0 0 1 1 1 2 1 0 -1 -1 -1 -1 -0 1 1 1 1 0 -0 -1 -1 -1 -2 -3 -2 -1 0 0 0 -0 -0 -2 -5 -8 -6 -3 -1 -2 -3 -3 -0 -1 -1 -1 0 -0 -1 -1 -0 -0 -0 -0 0 0 -0 -1 -2 -1 -1 -1 -1 1 2 3 3 0 -1 -1 0 1 1 1 1 -0 -1 -2 -2 -1 -0 1 2 3 3 3 2 1 1 0 0 1 1 1 1 1 1 1 1 1 0 0 -0
1 1 1 1 1 1 1 2 1 1 -0 -1 -1 -1 -0 1 1 1 2 2 1 -0 -1 -0 -1 -2 -4 -4 -1 2 3 2 0 -1 -3 -7 -8 -6 -1 1 -2 -4 -3 -0 -0 -1 -1 -0 -1 -0 1 1 1 1 1 1 -0 -1 -2 -1 -2 -2 -1 1 2 2 2 -0 -1 -1 0 1 2 2 1 0 -0 -1 -1 -1 -0 -0 1 2 3 3 3 2 1 1 1 1 1 1 1 1 1 1 1 1 1 1 0
0 0 0 0 0 0 1 1 1 1 -0 -1 -1 -1 -0 0 1 1 2 2 2 1 -0 -1 -0 0 -1 -6 -4 1 6 3 2 -0 -4 -6 -6 -5 -9 -6 -4 -2 -2 1 1 -0 -2 -2 -1 -0 2 2 2 2 2 1 -0 -2 -2 -1 -3 -3 -1 1 2 2 1 -1 -2 -1 0 1 2 2 1 1 1 0 0 0 -0 -0 0 1 1 1 2 2 2 2 2 2 1 1 0 0 0 0 0 1 1 0 0
0 -0 -0 -0 -0 0 0 1 1 1 -0 -1 -1 -1 -0 -0 1 1 2 2 2 2 2 -2 -2 -0 2 -3 -5 -2 5 4 4 2 -3 -8 -3 1 -6 -11 -11 -8 -2 3 4 3 1 -2 -1 1 4 4 3 2 1 -0 -1 -3 -2 -1 -2 -3 -1 1 1 1 -0 -2 -2 -1 0 1 1 1 1 1 1 1 1 1 1 0 0 0 -0 0 1 1 2 3 4 3 2 1 0 -0 -0 -0 -0 -0 -0 -0 -0
0 0 -0 -0 -0 0 0 1 1 1 -0 -1 -2 -1 -0 -0 0 1 2 3 3 3 3 0 -2 -2 -0 -0 -2 -3 3 5 4 3 1 -5 -3 -0 1 -5 -12 -15 -11 -6 -3 1 10 2 -0 1 4 5 4 3 2 1 -0 -1 -0 -1 -2 -2 -0 0 1 0 -1 -3 -2 -1 1 0 0 -0 0 0 1 1 2 2 1 1 0 -0 -0 -1 -1 -0 1 3 4 3 2 1 1 -0 -0 -0 -1 -1 -1 -1 -2
1 1 0 -0 -0 0 1 1 1 2 1 -0 -2 -2 -1 0 1 1 2 2 2 2 3 2 0 -1 -4 -1 -0 0 2 5 4 2 2 -0 -2 -3 -3 -0 -4 -9 -9 -12 -20 -19 4 10 6 1 3 4 3 2 2 3 2 2 2 1 -0 -1 0 1 1 0 -1 -2 -1 0 0 -0 -1 -0 -0 -0 0 1 2 2 2 1 0 -0 -1 -2 -2 -1 0 2 3 3 2 2 1 1 0 -0 -0 -1 -1 -2 -2
2 2 1 1 1 1 1 1 2 2 3 1 -0 -1 -2 -0 1 1 1 1 1 2 2 1 1 -0 -4 -5 -2 0 1 4 5 3 2 2 1 -1 -7 -5 -3 -2 -1 -3 -16 -28 -24 2 6 -0 -2 5 4 -0 -1 3 3 3 3 2 1 1 1 1 1 0 -2 -2 -1 1 0 -0 -1 -0 -1 -1 -1 0 1 1 1 1 -0 -1 -2 -2 -2 -1 -0 1 1 1 2 2 2 2 1 1 0 -0 -1 -1 -2
2 3 3 2 2 1 1 1 2 2 3 3 1 -0 -1 -0 1 1 1 1 1 1 2 1 0 -0 -2 -6 -7 -5 -2 2 5 6 4 3 4 3 -2 -6 -7 -5 -3 -1 -5 -13 -21 -11 -8 -8 -8 7 6 -0 -4 2 4 3 2 3 3 2 2 1 0 -1 -3 -2 -0 1 0 0 0 -0 -1 -1 -1 -1 -1 0 1 1 -0 -1 -2 -2 -2 -2 -1 -0 -1 -0 1 2 3 3 2 2 1 0 -0 -1 -2
2 3 3 3 2 2 1 1 2 2 2 2 2 1 -0 -1 -1 -0 1 2 2 2 2 1 1 1 2 -2 -5 -7 -6 -3 2 6 6 4 4 4 4 2 -1 -5 -8 -10 -10 -8 -5 -4 -12 -20 -21 6 10 1 -6 -0 2 2 1 2 3 3 3 2 1 -1 -2 -1 0 1 1 2 1 -0 -1 -1 -2 -2 -2 -0 -0 0 -0 -1 -1 -2 -3 -2 -1 -1 -1 -1 -0 1 3 4 4 3 2 1 -0 -1 -1
2 2 2 2 2 2 1 1 1 2 2 2 2 1 -0 -0 0 1 1 1 1 1 1 1 1 0 2 3 1 -3 -6 -6 -2 4 9 5 3 3 4 4 6 6 4 -6 -10 -10 -9 3 -2 -17 -35 -6 6 7 -1 -2 -2 -1 0 1 2 3 3 2 1 0 -0 0 1 1 2 2 2 1 1 -0 -2 -3 -2 -1 -0 -0 0 -0 -1 -2 -3 -2 -1 -0 -1 -1 -1 0 2 4 5 4 4 2 1 0 -0
1 1 1 1 1 1 1 1 1 1 1 1 1 1 0 1 2 3 2 1 0 0 0 2 1 1 1 5 7 5 -2 -6 -4 1 7 6 4 3 4 3 3 4 6 4 2 -1 -7 -3 -3 -9 -23 -23 -10 6 16 3 -3 -4 -1 0 2 3 2 1 0 0 1 1 1 1 2 2 3 2 2 1 -0 -1 -1 -0 0 0 0 -0 -1 -1 -2 -0 1 1 1 0 0 1 2 4 5 5 5 4 3 2 1
-1 -1 -0 -0 -0 -0 0 1 1 0 0 1 1 1 0 0 1 1 1 1 1 0 0 1 1 2 2 4 6 5 -2 -4 -2 1 2 0 1 3 7 5 2 -0 -1 2 5 7 6 0 -5 -7 -4 -22 -29 -19 14 13 6 -1 -5 -2 2 4 3 -0 -1 0 2 2 3 2 1 1 2 3 2 1 1 2 1 1 2 1 0 -0 -0 -1 -0 1 2 2 2 2 1 1 2 4 5 5 5 5 5 4 3
-2 -1 -1 -1 -1 -1 -1 -1 -0 -0 -0 -0 0 0 0 -0 0 0 1 1 1 1 2 0 1 2 4 3 3 2 -2 -4 -3 -0 2 -4 -6 -4 5 3 1 -1 -2 -1 1 4 6 4 2 2 2 -9 -23 -32 -29 -2 12 13 1 -4 -2 2 2 -1 -1 1 3 4 4 4 2 1 2 3 2 0 1 1 1 2 2 2 2 1 0 0 0 2 2 3 3 3 3 3 4 5 5 4 4 5 5 4 4
-1 -1 -1 -1 -1 -1 -1 -1 -1 -1 -1 -0 -0 0 1 1 1 0 1 0 1 2 2 1 0 1 2 3 3 2 0 -3 -3 -1 4 -0 -5 -6 -0 -0 -1 -3 -2 -3 -2 -1 0 -1 2 5 4 -2 -8 -18 -34 -28 -10 6 5 4 3 0 -4 -6 -3 0 3 3 4 4 4 4 4 5 4 3 2 1 0 0 1 2 4 2 2 1 1 2 2 2 3 3 4 5 6 6 5 4 4 4 4 4 4
Height
3133 3133 3133 3133 3133 3133 3133 3133 3133 3132 3132 3132 3131 3131 3131 3130 3130 3130 3129 3129 3129 3129 3129 3128 3128 3128 3128 3127 3127 3126 3126 3125 3125 3124 3124 3124 3123 3123 3123 3122 3122 3121 3121 3120 3120 3119 3119 3119 3118 3118 3117 3117 3117 3116 3116 3116 3116 3116 3115 3115 3115 3114 3114 3114 3114 3114 3114 3113 3113 3113 3113 3112 3112 3112 3111 3111 3110 3109 3109 3109 3108 3107 3107 3106 3106 3105 3105 3105 3104 3104 3104 3103 3103 3102 3102 3101 3101 3100 3100 3099 3099 3099 3099
3132 3132 3132 3133 3133 3132 3132 3132 3132 3132 3131 3131 3131 3131 3130 3130 3129 3129 3129 3129 3129 3128 3128 3128 3128 3127 3127 3127 3126 3126 3125 3125 3124 3124 3124 3123 3123 3122 3122 3121 3121 3121 3120 3120 3119 3119 3118 3118 3118 3117 3117 3116 3116 3116 3115 3115 3115 3115 3115 3115 3114 3114 3114 3114 3113 3113 3113 3113 3113 3112 3112 3112 3111 3111 3111 3110 3109 3109 3109 3108 3107 3107 3106 3106 3105 3105 3104 3104 3104 3104 3103 3103 3102 3102 3101 3101 3100 3100 3099 3099 3099 3099 3099
3132 3132 3132 3132 3132 3132 3132 3131 3131 3131 3131 3130 3130 3130 3130 3129 3129 3129 3129 3128 3128 3128 3127 3127 3127 3127 3126 3126 3126 3125 3125 3124 3124 3123 3123 3123 3122 3122 3121 3121 3120 3120 3119 3119 3119 3118 3118 3117 3117 3116 3116 3115 3115 3115 3115 3115 3115 3114 3114 3114 3114 3113 3113 3113 3113 3112 3112 3112 3112 3112 3111 3111 3111 3110 3110 3109 3109 3109 3108 3107 3107 3106 3106 3105 3105 3104 3104 3104 3103 3103 3103 3102 3102 3101 3101 3100 3100 3099 3099 3099 3099 3098 3098
3131 3131 3131 3131 3131 3131 3131 3131 3131 3130 3130 3130 3130 3129 3129 3129 3129 3128 3128 3128 3127 3127 3127 3127 3126 3126 3126 3125 3125 3124 3124 3124 3123 3123 3122 3122 3121 3121 3120 3120 3119 3119 3119 3118 3118 3117 3117 3116 3116 3115 3115 3115 3114 3114 3114 3114 3114 3114 3114 3114 3113 3113 3113 3112 3112 3112 3112 3111 3111 3111 3111 3110 3110 3110 3109 3109 3108 3108 3107 3107 3106 3106 3105 3105 3104 3104 3104 3103 3103 3102 3102 3102 3101 3101 3100 3100 3099 3099 3099 3098 3098 3098 3098
3131 3130 3130 3130 3130 3130 3130 3130 3130 3130 3129 3129 3129 3129 3129 3128 3128 3128 3127 3127 3127 3126 3126 3126 3126 3125 3125 3125 3124 3124 3123 3123 3122 3122 3121 3121 3121 3120 3120 3119 3119 3119 3118 3118 3117 3117 3116 3116 3115 3115 3114 3114 3114 3114 3113 3113 3113 3113 3113 3113 3113 3112 3112 3112 3111 3111 3111 3111 3110 3110 3110 3109 3109 3109 3109 3108 3108 3107 3107 3106 3105 3105 3104 3104 3104 3104 3103 3103 3102 3102 3101 3101 3101 3100 3100 3099 3099 3099 3098 3098 3098 3097 3097
3130 3130 3130 3130 3130 3130 3130 3130 3129 3129 3129 3129 3129 3128 3128 3128 3127 3127 3127 3126 3126 3126 3125 3125 3125 3125 3124 3124 3124 3123 3123 3122 3122 3121 3121 3120 3120 3119 3119 3119 3118 3118 3117 3117 3116 3116 3115 3115 3114 3114 3114 3113 3113 3113 3112 3112 3112 3112 3112 3112 3112 3111 3111 3111 3111 3110 3110 3110 3110 3109 3109 3109 3109 3108 3108 3108 3107 3106 3106 3105 3105 3104 3104 3104 3103 3103 3103 3102 3102 3101 3101 3101 3100 3100 3099 3099 3099 3098 3098 3098 3097 3097 3097
3129 3129 3129 3129 3129 3129 3129 3129 3129 3129 3129 3128 3128 3128 3127 3127 3126 3126 3126 3126 3125 3125 3125 3124 3124 3124 3124 3123 3123 3122 3122 3121 3121 3120 3120 3119 3119 3119 3118 3118 3117 3117 3116 3116 3115 3115 3115 3114 3114 3114 3113 3113 3112 3112 3111 3111 3111 3111 3111 3111 3111 3110 3110 3110 3110 3110 3109 3109 3109 3109 3108 3108 3108 3108 3107 3107 3106 3106 3105 3105 3104 3104 3104 3103 3103 3102 3102 3102 3101 3101 3100 3100 3100 3099 3099 3099 3098 3098 3098 3097 3097 3096 3096
3129 3129 3129 3129 3129 3129 3129 3128 3128 3128 3128 3128 3127 3127 3127 3126 3126 3125 3125 3125 3125 3124 3124 3124 3124 3123 3123 3122 3122 3121 3121 3120 3120 3120 3119 3119 3118 3118 3117 3117 3116 3116 3115 3115 3115 3114 3114 3114 3113 3113 3112 3112 3112 3111 3111 3110 3110 3110 3110 3110 3109 3109 3109 3109 3109 3109 3109 3108 3108 3108 3108 3107 3107 3107 3106 3106 3105 3105 3104 3104 3104 3103 3103 3103 3102 3102 3101 3101 3101 3100 3100 3099 3099 3099 3099 3098 3098 3097 3097 3097 3096 3096 3096
3129 3129 3128 3128 3128 3128 3128 3127 3127 3127 3127 3127 3127 3126 3126 3125 3125 3125 3125 3124 3124 3124 3123 3123 3123 3122 3122 3121 3121 3121 3120 3120 3119 3119 3119 3118 3117 3117 3116 3116 3115 3115 3115 3114 3114 3114 3113 3113 3113 3112 3112 3111 3111 3110 3110 3109 3109 3109 3109 3109 3109 3108 3108 3108 3108 3108 3107 3107 3107 3107 3106 3106 3106 3106 3105 3105 3104 3104 3104 3103 3103 3103 3102 3102 3102 3101 3101 3100 3100 3100 3099 3099 3099 3098 3098 3098 3097 3097 3097 3096 3096 3095 3095
3128 3128 3128 3127 3127 3127 3127 3127 3127 3126 3126 3126 3126 3126 3125 3125 3125 3124 3124 3124 3123 3123 3123 3122 3122 3121 3121 3120 3120 3120 3119 3119 3119 3118 3118 3117 3117 3116 3115 3115 3114 3114 3114 3113 3113 3113 3112 3112 3112 3111 3111 3110 3110 3110 3109 3109 3109 3108 3108 3108 3108 3107 3107 3107 3107 3106 3106 3106 3106 3106 3105 3105 3105 3104 3104 3104 3104 3103 3103 3102 3102 3102 3101 3101 3101 3100 3100 3100 3099 3099 3099 3098 3098 3098 3097 3097 3097 3096 3096 3096 3095 3095 3094
3128 3127 3127 3127 3126 3126 3126 3126 3126 3126 3126 3125 3125 3125 3125 3124 3124 3124 3123 3123 3123 3122 3122 3121 3121 3120 3120 3120 3119 3119 3119 3118 3118 3117 3117 3116 3116 3115 3115 3114 3114 3113 3113 3112 3112 3112 3111 3111 3111 3110 3110 3110 3109 3109 3109 3108 3108 3107 3107 3107 3107 3106 3106 3106 3105 3105 3105 3105 3104 3104 3104 3104 3104 3104 3103 3103 3103 3102 3102 3101 3101 3101 3100 3100 3100 3100 3099 3099 3099 3099 3098 3098 3097 3097 3097 3096 3096 3096 3095 3095 3095 3094 3094
3127 3126 3126 3126 3126 3126 3125 3125 3125 3125 3125 3125 3124 3124 3124 3124 3123 3123 3123 3122 3122 3121 3121 3120 3120 3120 3119 3119 3119 3118 3118 3117 3117 3116 3116 3115 3115 3114 3114 3113 3113 3112 3112 3111 3111 3111 3110 3110 3110 3109 3109 3109 3109 3108 3108 3107 3107 3106 3106 3106 3106 3105 3105 3105 3104 3104 3104 3104 3103 3103 3103 3103 3103 3102 3102 3102 3102 3101 3101 3100 3100 3100 3099 3099 3099 3099 3099 3098 3098 3098 3097 3097 3097 3096 3096 3096 3095 3095 3095 3094 3094 3094 3094
3126 3126 3126 3125 3125 3125 3125 3125 3124 3124 3124 3124 3124 3124 3123 3123 3123 3122 3122 3121 3121 3120 3120 3120 3119 3119 3119 3118 3118 3117 3117 3117 3116 3116 3115 3115 3114 3114 3113 3112 3112 3111 3111 3110 3110 3109 3109 3109 3109 3109 3108 3108 3108 3107 3107 3107 3106 3106 3105 3105 3104 3104 3104 3104 3104 3103 3103 3102 3102 3102 3102 3101 3101 3101 3101 3101 3100 3100 3100 3099 3099 3099 3099 3098 3098 3098 3098 3097 3097 3097 3096 3096 3096 3096 3095 3095 3095 3094 3094 3094 3093 3093 3093
3125 3125 3125 3125 3125 3124 3124 3124 3124 3124 3124 3124 3123 3123 3123 3123 3122 3122 3121 3121 3120 3120 3119 3119 3119 3118 3118 3117 3117 3116 3116 3116 3115 3115 3114 3114 3113 3113 3112 3112 3111 3110 3110 3109 3109 3109 3108 3108 3108 3107 3107 3107 3107 3106 3106 3106 3105 3105 3104 3104 3104 3103 3103 3103 3102 3102 3102 3101 3101 3101 3100 3100 3100 3100 3100 3099 3099 3099 3099 3098 3098 3098 3098 3097 3097 3097 3097 3096 3096 3096 3096 3095 3095 3095 3094 3094 3094 3094 3093 3093 3093 3092 3092
3125 3125 3125 3124 3124 3124 3124 3124 3124 3123 3123 3123 3123 3122 3122 3122 3121 3121 3120 3120 3119 3119 3119 3118 3118 3117 3117 3116 3116 3115 3115 3115 3114 3114 3114 3113 3113 3112 3111 3111 3110 3109 3109 3108 3108 3108 3107 3107 3106 3106 3106 3106 3105 3105 3105 3105 3104 3104 3103 3103 3103 3102 3102 3102 3101 3101 3101 3100 3100 3100 3099 3099 3099 3099 3099 3098 3098 3098 3098 3097 3097 3097 3096 3096 3096 3096 3095 3095 3095 3095 3095 3094 3094 3094 3094 3093 3093 3093 3092 3092 3092 3091 3091
3124 3124 3124 3124 3124 3124 3123 3123 3123 3123 3122 3122 3122 3121 3121 3121 3121 3120 3120 3119 3119 3118 3118 3117 3117 3116 3116 3115 3115 3114 3114 3114 3113 3113 3113 3112 3112 3111 3110 3110 3109 3109 3108 3108 3107 3106 3106 3106 3105 3105 3105 3104 3104 3104 3104 3104 3103 3103 3102 3102 3101 3101 3101 3100 3100 3100 3099 3099 3099 3099 3098 3098 3098 3098 3097 3097 3097 3096 3096 3096 3096 3095 3095 3095 3095 3094 3094 3094 3094 3094 3094 3094 3093 3093 3093 3093 3092 3092 3092 3091 3091 3091 3090
3124 3124 3124 3123 3123 3123 3123 3122 3122 3122 3122 3121 3121 3121 3120 3120 3120 3119 3119 3118 3118 3117 3117 3116 3116 3115 3115 3114 3114 3113 3113 3113 3112 3112 3111 3111 3111 3110 3110 3109 3109 3108 3107 3107 3106 3106 3105 3105 3104 3104 3104 3103 3103 3103 3102 3102 3102 3101 3101 3101 3100 3100 3099 3099 3099 3099 3098 3098 3098 3097 3097 3097 3097 3096 3096 3096 3095 3095 3095 3095 3094 3094 3094 3094 3094 3093 3093 3093 3093 3093 3093 3092 3092 3092 3092 3091 3091 3091 3091 3090 3090 3090 3089
3123 3123 3123 3123 3122 3122 3122 3122 3121 3121 3121 3120 3120 3120 3119 3119 3119 3118 3118 3117 3117 3116 3116 3115 3115 3114 3114 3113 3113 3112 3112 3111 3111 3111 3110 3110 3109 3109 3109 3108 3108 3107 3106 3106 3105 3105 3104 3104 3103 3103 3103 3102 3102 3101 3101 3101 3100 3100 3100 3099 3099 3099 3098 3098 3098 3097 3097 3097 3096 3096 3096 3095 3095 3095 3095 3094 3094 3094 3094 3094 3093 3093 3093 3093 3092 3092 3092 3092 3092 3091 3091 3091 3091 3091 3090 3090 3090 3090 3089 3089 3089 3089 3089
3123 3122 3122 3122 3121 3121 3121 3121 3120 3120 3120 3120 3119 3119 3119 3118 3118 3118 3117 3116 3116 3115 3115 3114 3114 3114 3113 3112 3112 3111 3111 3110 3110 3109 3109 3109 3108 3108 3108 3107 3107 3106 3106 3105 3104 3104 3104 3103 3103 3102 3102 3101 3101 3100 3100 3099 3099 3099 3098 3098 3098 3097 3097 3097 3096 3096 3095 3095 3095 3094 3094 3094 3094 3094 3094 3093 3093 3093 3092 3092 3092 3092 3092 3091 3091 3091 3091 3090 3090 3090 3090 3090 3089 3089 3089 3089 3089 3089 3089 3088 3088 3088 3087
3122 3122 3121 3121 3121 3120 3120 3120 3120 3119 3119 3119 3119 3118 3118 3117 3117 3117 3116 3115 3115 3114 3114 3113 3113 3113 3112 3111 3111 3110 3110 3109 3109 3108 3108 3107 3107 3107 3106 3106 3105 3105 3104 3104 3104 3103 3103 3102 3102 3101 3101 3100 3099 3099 3099 3098 3098 3097 3097 3096 3096 3096 3095 3095 3095 3094 3094 3094 3094 3093 3093 3093 3092 3092 3092 3092 3091 3091 3091 3091 3090 3090 3090 3090 3090 3089 3089 3089 3089 3089 3089 3089 3088 3088 3088 3088 3088 3088 3087 3087 3087 3086 3086
3121 3121 3120 3120 3120 3120 3119 3119 3119 3119 3118 3118 3118 3117 3117 3116 3116 3116 3115 3115 3114 3114 3113 3113 3112 3112 3111 3110 3110 3109 3109 3108 3108 3107 3107 3106 3106 3105 3105 3104 3104 3104 3103 3103 3102 3102 3102 3101 3101 3100 3100 3099 3099 3098 3097 3097 3096 3096 3095 3095 3094 3094 3094 3094 3093 3093 3093 3092 3092 3092 3091 3091 3091 3091 3090 3090 3090 3089 3089 3089 3089 3089 3089 3089 3088 3088 3088 3088 3088 3087 3087 3087 3087 3087 3087 3086 3086 3086 3086 3086 3085 3085 3085
3120 3120 3119 3119 3119 3119 3119 3118 3118 3118 3117 3117 3117 3116 3116 3115 3115 3115 3114 3114 3113 3113 3112 3112 3111 3110 3110 3109 3109 3109 3108 3107 3107 3106 3106 3105 3104 3104 3104 3103 3103 3102 3102 3101 3101 3101 3100 3100 3099 3099 3099 3098 3098 3097 3096 3096 3095 3094 3094 3094 3093 3093 3092 3092 3092 3091 3091 3091 3090 3090 3090 3089 3089 3089 3089 3089 3088 3088 3088 3088 3087 3087 3087 3087 3087 3087 3086 3086 3086 3086 3086 3085 3085 3085 3085 3085 3085 3084 3084 3084 3084 3084 3084
3119 3119 3119 3118 3118 3118 3118 3117 3117 3117 3116 3116 3116 3115 3115 3114 3114 3114 3113 3113 3112 3112 3111 3111 3110 3109 3109 3109 3108 3107 3107 3106 3106 3105 3104 3104 3104 3103 3102 3102 3101 3101 3100 3100 3099 3099 3099 3099 3098 3098 3098 3097 3096 3096 3095 3094 3094 3093 3093 3092 3092 3091 3091 3090 3090 3090 3089 3089 3089 3088 3088 3088 3088 3087 3087 3087 3087 3086 3086 3086 3086 3085 3085 3085 3085 3085 3085 3084 3084 3084 3084 3084 3084 3084 3084 3083 3083 3083 3083 3083 3082 3082 3082
3118 3118 3118 3117 3117 3117 3117 3116 3116 3116 3115 3115 3115 3114 3114 3114 3113 3113 3112 3112 3111 3111 3110 3109 3109 3108 3108 3107 3107 3106 3106 3105 3104 3104 3104 3103 3102 3102 3101 3101 3100 3099 3099 3099 3098 3098 3097 3097 3097 3096 3096 3096 3095 3095 3094 3094 3093 3092 3091 3091 3090 3090 3089 3089 3089 3088 3088 3087 3087 3087 3086 3086 3086 3085 3085 3085 3085 3084 3084 3084 3084 3084 3084 3083 3083 3083 3083 3083 3083 3082 3082 3082 3082 3082 3082 3081 3081 3081 3081 3081 3081 3080 3080
3117 3117 3117 3116 3116 3116 3115 3115 3115 3114 3114 3114 3114 3114 3113 3113 3112 3112 3111 3111 3110 3109 3109 3108 3108 3107 3107 3106 3105 3105 3104 3104 3103 3103 3102 3102 3101 3100 3100 3099 3099 3098 3098 3097 3097 3096 3096 3095 3095 3095 3094 3094 3094 3093 3093 3092 3092 3091 3090 3089 3089 3088 3088 3087 3087 3086 3086 3085 3085 3085 3084 3084 3084 3084 3084 3083 3083 3083 3082 3082 3082 3082 3082 3081 3081 3081 3081 3081 3081 3080 3080 3080 3080 3080 3080 3079 3079 3079 3079 3079 3079 3079 3079
3116 3116 3116 3115 3115 3115 3114 3114 3114 3114 3113 3113 3113 3112 3112 3111 3111 3110 3110 3109 3109 3108 3108 3107 3106 3106 3105 3105 3104 3104 3103 3102 3102 3101 3101 3100 3100 3099 3099 3098 3098 3097 3096 3096 3095 3095 3094 3094 3094 3093 3093 3092 3092 3092 3091 3091 3090 3089 3089 3088 3087 3087 3086 3086 3085 3085 3084 3084 3084 3083 3083 3082 3082 3082 3082 3081 3081 3081 3080 3080 3080 3080 3079 3079 3079 3079 3079 3079 3079 3078 3078 3078 3078 3078 3078 3078 3077 3077 3077 3077 3077 3077 3077
3115 3115 3115 3114 3114 3114 3113 3113 3113 3113 3112 3112 3111 3111 3111 3110 3110 3109 3109 3108 3107 3107 3106 3106 3105 3104 3104 3103 3103 3102 3102 3101 3100 3100 3099 3099 3098 3098 3097 3097 3096 3095 3095 3094 3094 3093 3093 3092 3092 3091 3091 3090 3090 3090 3089 3089 3088 3088 3087 3086 3086 3085 3084 3084 3084 3083 3083 3082 3082 3081 3081 3080 3080 3080 3079 3079 3079 3079 3079 3078 3078 3078 3078 3077 3077 3077 3077 3076 3076 3076 3076 3076 3076 3076 3075 3075 3075 3075 3075 3075 3075 3074 3074
3115 3114 3114 3114 3113 3113 3112 3112 3112 3111 3111 3111 3110 3110 3109 3109 3109 3108 3107 3107 3106 3105 3105 3104 3104 3103 3103 3102 3101 3101 3100 3099 3099 3099 3098 3097 3097 3096 3096 3095 3095 3094 3093 3093 3092 3092 3091 3090 3090 3089 3089 3089 3088 3088 3087 3087 3086 3086 3085 3084 3084 3083 3083 3082 3082 3081 3081 3080 3080 3079 3079 3079 3078 3078 3078 3077 3077 3077 3077 3076 3076 3076 3075 3075 3075 3075 3074 3074 3074 3074 3074 3074 3074 3073 3073 3073 3073 3073 3073 3073 3073 3072 3072
3114 3114 3113 3113 3112 3112 3112 3111 3111 3110 3110 3109 3109 3109 3108 3108 3107 3107 3106 3105 3105 3104 3104 3103 3102 3102 3101 3100 3100 3099 3099 3098 3097 3097 3096 3096 3095 3094 3094 3094 3093 3092 3092 3091 3090 3090 3089 3089 3088 3088 3087 3087 3086 3086 3085 3085 3084 3084 3083 3082 3082 3081 3081 3080 3080 3079 3079 3079 3078 3078 3077 3077 3076 3076 3075 3075 3075 3074 3074 3074 3074 3074 3073 3073 3073 3072 3072 3072 3072 3072 3071 3071 3071 3071 3071 3071 3070 3070 3070 3070 3070 3070 3070
3114 3113 3113 3112 3112 3111 3111 3110 3110 3109 3109 3109 3108 3108 3107 3106 3106 3105 3105 3104 3103 3103 3102 3101 3101 3100 3100 3099 3099 3098 3097 3096 3096 3095 3094 3094 3093 3093 3092 3092 3091 3090 3090 3089 3089 3088 3088 3087 3086 3086 3085 3085 3084 3084 3083 3083 3082 3082 3081 3080 3079 3079 3079 3078 3078 3077 3077 3076 3076 3076 3075 3075 3074 3074 3073 3073 3073 3072 3072 3072 3071 3071 3071 3071 3070 3070 3070 3069 3069 3069 3069 3069 3069 3068 3068 3068 3068 3068 3068 3068 3068 3068 3067
3113 3113 3112 3112 3111 3111 3110 3110 3109 3109 3108 3108 3107 3107 3106 3105 3105 3104 3104 3103 3102 3101 3101 3100 3099 3099 3098 3098 3097 3096 3095 3094 3094 3093 3093 3092 3091 3091 3090 3089 3089 3089 3088 3087 3086 3086 3085 3085 3084 3084 3083 3083 3082 3081 3081 3080 3080 3079 3079 3078 3078 3077 3076 3076 3075 3075 3075 3074 3074 3074 3073 3073 3072 3072 3071 3071 3070 3070 3070 3069 3069 3069 3069 3068 3068 3068 3068 3067 3067 3067 3067 3066 3066 3066 3066 3065 3065 3065 3065 3065 3065 3065 3065
3113 3112 3112 3111 3111 3110 3109 3109 3109 3108 3108 3107 3106 3106 3105 3104 3104 3103 3102 3102 3101 3100 3099 3099 3098 3097 3097 3096 3095 3094 3094 3093 3092 3092 3091 3090 3090 3089 3088 3087 3087 3086 3086 3085 3084 3084 3083 3083 3082 3082 3081 3080 3080 3079 3079 3078 3078 3077 3077 3076 3076 3075 3074 3074 3073 3073 3073 3072 3072 3071 3071 3070 3070 3069 3069 3069 3068 3068 3067 3067 3067 3066 3066 3066 3066 3066 3065 3065 3065 3064 3064 3064 3064 3063 3063 3063 3063 3063 3063 3062 3062 3062 3062
3112 3111 3111 3110 3110 3109 3109 3109 3108 3108 3107 3106 3105 3105 3104 3103 3102 3101 3101 3100 3099 3099 3098 3097 3096 3096 3095 3094 3094 3093 3092 3091 3090 3090 3089 3089 3088 3087 3086 3085 3085 3084 3084 3083 3082 3082 3081 3080 3080 3079 3079 3078 3078 3077 3076 3076 3075 3075 3074 3074 3074 3073 3072 3072 3071 3071 3070 3070 3069 3069 3069 3068 3068 3067 3067 3066 3066 3065 3065 3065 3064 3064 3064 3064 3064 3063 3063 3063 3062 3062 3062 3061 3061 3061 3061 3060 3060 3060 3060 3060 3059 3059 3059
3111 3110 3110 3109 3109 3109 3108 3108 3107 3106 3105 3105 3104 3103 3102 3101 3100 3099 3099 3098 3097 3097 3096 3095 3094 3094 3093 3093 3092 3091 3090 3090 3089 3088 3088 3087 3086 3085 3084 3084 3083 3082 3081 3081 3080 3079 3079 3078 3078 3077 3077 3076 3075 3074 3074 3073 3073 3073 3072 3072 3071 3071 3070 3069 3069 3069 3068 3068 3067 3067 3066 3066 3066 3065 3065 3064 3064 3063 3063 3062 3062 3062 3061 3061 3061 3061 3061 3060 3060 3059 3059 3059 3059 3059 3058 3058 3058 3057 3057 3057 3057 3057 3057
3109 3109 3109 3108 3108 3107 3107 3106 3105 3105 3104 3103 3102 3101 3100 3100 3099 3098 3097 3096 3096 3095 3094 3094 3093 3092 3091 3091 3090 3089 3089 3088 3087 3086 3086 3085 3084 3084 3083 3082 3081 3080 3079 3079 3078 3077 3076 3076 3075 3075 3074 3074 3073 3072 3072 3071 3070 3070 3070 3069 3069 3069 3068 3067 3067 3066 3066 3065 3065 3064 3064 3064 3063 3063 3062 3062 3061 3061 3060 3060 3059 3059 3059 3058 3059 3059 3059 3058 3058 3057 3057 3056 3056 3056 3056 3055 3055 3055 3054 3054 3054 3054 3054
3108 3108 3107 3107 3106 3106 3105 3104 3104 3103 3102 3101 3100 3099 3099 3098 3097 3096 3095 3095 3094 3093 3093 3092 3091 3090 3090 3089 3089 3088 3087 3086 3085 3084 3084 3083 3083 3082 3081 3080 3079 3078 3077 3077 3076 3075 3074 3074 3074 3073 3072 3072 3071 3070 3069 3069 3068 3068 3067 3067 3067 3066 3065 3065 3064 3064 3064 3063 3063 3062 3062 3061 3061 3060 3060 3059 3059 3058 3058 3057 3057 3056 3056 3056 3055 3055 3055 3055 3055 3055 3054 3054 3054 3053 3053 3053 3052 3052 3052 3051 3051 3051 3051
3107 3106 3106 3105 3104 3104 3104 3103 3102 3101 3100 3099 3098 3098 3097 3096 3095 3094 3094 3093 3093 3092 3091 3090 3089 3089 3088 3087 3086 3086 3085 3084 3083 3082 3082 3081 3080 3080 3079 3078 3077 3076 3075 3075 3074 3073 3072 3072 3071 3071 3070 3069 3069 3068 3068 3067 3066 3065 3065 3064 3064 3064 3063 3063 3062 3062 3061 3061 3060 3060 3059 3059 3058 3058 3057 3057 3056 3056 3055 3055 3054 3054 3054 3053 3053 3052 3052 3052 3052 3052 3052 3052 3051 3051 3050 3050 3049 3049 3049 3049 3048 3048 3048
3105 3104 3104 3103 3103 3102 3102 3101 3100 3099 3098 3097 3096 3096 3095 3094 3094 3093 3092 3091 3091 3090 3089 3088 3087 3087 3086 3085 3084 3084 3083 3082 3081 3080 3080 3079 3079 3078 3077 3076 3075 3074 3074 3073 3072 3071 3070 3070 3069 3069 3068 3068 3067 3066 3066 3065 3064 3064 3063 3063 3062 3061 3061 3060 3060 3059 3059 3059 3058 3058 3057 3056 3056 3055 3055 3054 3054 3053 3053 3052 3052 3051 3051 3050 3050 3049 3049 3049 3049 3049 3049 3049 3049 3048 3048 3047 3046 3046 3046 3046 3045 3045 3045
3103 3102 3102 3101 3101 3100 3100 3099 3098 3097 3096 3095 3094 3094 3093 3092 3092 3091 3090 3089 3089 3088 3087 3086 3085 3084 3084 3083 3082 3082 3081 3080 3079 3078 3078 3077 3076 3076 3075 3074 3073 3072 3071 3071 3070 3069 3069 3068 3068 3067 3066 3065 3065 3064 3064 3063 3063 3062 3061 3060 3060 3059 3059 3058 3058 3057 3057 3056 3056 3055 3055 3054 3054 3053 3053 3052 3051 3051 3050 3050 3049 3049 3048 3048 3047 3047 3046 3046 3046 3045 3045 3046 3046 3045 3044 3044 3044 3044 3043 3044 3043 3042 3042
3100 3100 3099 3099 3099 3099 3098 3097 3096 3095 3094 3093 3092 3092 3091 3090 3090 3089 3089 3088 3087 3086 3085 3084 3083 3082 3082 3081 3080 3079 3079 3078 3077 3076 3075 3075 3074 3074 3073 3072 3071 3070 3069 3069 3068 3067 3067 3066 3066 3065 3064 3064 3063 3062 3061 3061 3061 3060 3059 3059 3058 3057 3057 3056 3055 3055 3054 3054 3053 3053 3053 3052 3051 3051 3050 3049 3049 3048 3048 3047 3047 3046 3045 3045 3044 3044 3044 3043 3043 3043 3042 3042 3042 3042 3042 3041 3041 3040 3040 3040 3040 3039 3039
3099 3098 3098 3097 3097 3097 3096 3095 3094 3093 3092 3091 3090 3090 3089 3089 3088 3087 3086 3085 3084 3084 3083 3082 3081 3079 3079 3079 3078 3077 3077 3076 3075 3074 3073 3073 3072 3071 3071 3070 3069 3068 3067 3067 3066 3065 3064 3064 3064 3063 3062 3061 3060 3059 3059 3059 3059 3058 3057 3056 3056 3055 3054 3054 3053 3052 3052 3051 3051 3050 3050 3050 3049 3049 3048 3047 3046 3046 3045 3044 3044 3043 3043 3042 3042 3041 3041 3040 3040 3039 3039 3039 3039 3038 3038 3038 3038 3037 3037 3037 3037 3036 3035
3096 3096 3095 3095 3095 3094 3094 3093 3092 3091 3090 3089 3089 3088 3087 3087 3086 3085 3084 3083 3082 3081 3081 3080 3079 3078 3076 3076 3075 3075 3074 3074 3073 3072 3071 3070 3069 3069 3068 3067 3067 3066 3065 3064 3063 3063 3062 3062 3061 3060 3059 3059 3058 3057 3057 3056 3056 3055 3054 3054 3053 3053 3052 3051 3050 3050 3049 3049 3048 3048 3047 3047 3047 3046 3045 3045 3044 3043 3043 3042 3041 3041 3040 3039 3039 3039 3038 3038 3037 3037 3036 3036 3035 3035 3035 3034 3034 3034 3034 3034 3033 3033 3033
3094 3094 3093 3093 3092 3092 3092 3091 3090 3089 3089 3088 3087 3086 3086 3085 3084 3083 3082 3081 3080 3079 3079 3078 3077 3075 3074 3073 3073 3072 3072 3071 3070 3069 3068 3067 3066 3066 3065 3064 3064 3063 3063 3062 3061 3060 3060 3059 3058 3057 3056 3056 3055 3054 3054 3054 3053 3053 3052 3051 3050 3050 3049 3049 3048 3047 3047 3046 3045 3045 3044 3044 3044 3044 3043 3042 3041 3041 3040 3039 3039 3038 3038 3037 3036 3036 3035 3035 3034 3034 3033 3033 3032 3032 3031 3031 3031 3030 3030 3030 3029 3029 3029
3092 3092 3091 3091 3090 3090 3090 3089 3089 3088 3087 3086 3085 3085 3084 3083 3082 3081 3080 3079 3078 3077 3076 3076 3075 3074 3072 3071 3070 3070 3069 3069 3068 3067 3066 3064 3064 3063 3062 3062 3061 3060 3060 3059 3058 3058 3057 3056 3055 3054 3053 3053 3052 3051 3051 3051 3050 3050 3049 3048 3048 3047 3047 3046 3046 3045 3044 3043 3042 3042 3041 3041 3041 3041 3040 3039 3039 3038 3037 3037 3036 3036 3035 3034 3034 3033 3033 3032 3031 3031 3030 3030 3029 3029 3028 3028 3028 3027 3027 3026 3026 3026 3026
3091 3090 3090 3089 3089 3089 3089 3088 3087 3086 3085 3084 3084 3083 3082 3081 3080 3079 3078 3077 3076 3074 3074 3073 3073 3071 3070 3069 3068 3068 3067 3066 3065 3064 3063 3062 3061 3060 3059 3059 3059 3058 3057 3056 3055 3055 3054 3053 3052 3052 3051 3050 3049 3049 3048 3048 3048 3047 3046 3045 3045 3044 3044 3044 3043 3042 3041 3040 3039 3039 3039 3038 3038 3038 3037 3036 3036 3035 3035 3034 3034 3033 3032 3032 3031 3030 3030 3029 3029 3028 3028 3027 3026 3026 3025 3025 3024 3024 3024 3023 3023 3023 3022
3089 3089 3089 3088 3088 3087 3087 3086 3085 3084 3083 3082 3081 3080 3080 3079 3078 3077 3076 3075 3074 3073 3071 3071 3070 3069 3068 3067 3066 3065 3064 3064 3063 3062 3060 3059 3058 3057 3057 3056 3056 3055 3054 3053 3053 3052 3051 3050 3049 3049 3048 3047 3046 3046 3045 3045 3045 3044 3043 3043 3042 3042 3041 3041 3041 3040 3039 3038 3037 3036 3036 3035 3035 3035 3034 3033 3033 3032 3032 3032 3031 3030 3030 3029 3029 3028 3027 3026 3026 3025 3025 3024 3024 3023 3023 3022 3022 3021 3021 3020 3020 3019 3019
3088 3088 3087 3086 3086 3085 3085 3084 3083 3082 3081 3080 3079 3078 3078 3077 3076 3075 3074 3073 3071 3070 3069 3068 3067 3066 3066 3065 3064 3063 3062 3061 3060 3059 3057 3056 3055 3054 3054 3053 3053 3052 3051 3050 3049 3049 3048 3047 3046 3045 3045 3044 3044 3043 3042 3042 3041 3041 3040 3040 3039 3039 3039 3038 3038 3037 3036 3034 3034 3033 3033 3033 3032 3032 3031 3030 3029 3029 3029 3029 3028 3028 3027 3027 3026 3025 3024 3024 3023 3022 3022 3021 3021 3020 3020 3019 3019 3018 3018 3017 3017 3016 3016
3087 3086 3085 3085 3084 3084 3083 3082 3081 3080 3079 3078 3077 3076 3075 3075 3074 3073 3072 3071 3069 3068 3067 3066 3064 3064 3063 3062 3062 3061 3060 3059 3058 3056 3054 3053 3052 3051 3051 3050 3049 3048 3048 3047 3046 3045 3045 3044 3043 3043 3042 3041 3040 3040 3039 3039 3038 3038 3037 3037 3037 3036 3036 3035 3035 3034 3033 3032 3031 3030 3030 3029 3029 3029 3028 3027 3027 3026 3026 3025 3025 3025 3024 3024 3023 3023 3022 3021 3020 3019 3019 3018 3018 3017 3017 3016 3016 3015 3015 3014 3014 3014 3013
3085 3084 3084 3083 3082 3082 3081 3080 3079 3078 3077 3076 3075 3074 3074 3073 3072 3071 3070 3069 3068 3066 3065 3064 3062 3061 3060 3059 3059 3059 3058 3057 3055 3054 3052 3050 3049 3048 3048 3047 3045 3044 3044 3044 3043 3042 3042 3041 3040 3040 3039 3039 3038 3037 3036 3036 3035 3034 3034 3034 3033 3033 3033 3032 3032 3031 3030 3029 3028 3027 3027 3026 3026 3025 3025 3024 3024 3023 3023 3022 3022 3022 3021 3021 3020 3019 3019 3018 3017 3017 3016 3015 3015 3014 3014 3013 3013 3012 3012 3011 3011 3010 3010
3084 3083 3082 3081 3081 3080 3079 3078 3077 3076 3075 3074 3073 3072 3072 3071 3070 3069 3068 3067 3066 3064 3063 3061 3060 3059 3058 3057 3056 3056 3056 3055 3053 3051 3049 3047 3046 3044 3043 3043 3042 3041 3040 3040 3039 3039 3038 3038 3037 3037 3037 3036 3035 3034 3034 3033 3032 3031 3031 3030 3030 3029 3029 3029 3029 3028 3026 3025 3025 3024 3024 3024 3023 3022 3022 3021 3021 3020 3020 3019 3019 3018 3018 3017 3017 3016 3016 3015 3014 3014 3013 3013 3012 3011 3011 3010 3009 3009 3009 3008 3007 3007 3007
3082 3081 3080 3080 3079 3078 3077 3076 3075 3074 3073 3072 3071 3070 3069 3069 3068 3067 3066 3065 3064 3063 3061 3059 3058 3057 3055 3054 3054 3054 3054 3052 3051 3049 3047 3044 3044 3042 3040 3038 3037 3037 3037 3036 3036 3035 3035 3034 3034 3034 3034 3033 3033 3032 3031 3030 3029 3028 3028 3027 3027 3026 3026 3026 3025 3024 3023 3022 3022 3021 3021 3020 3020 3019 3018 3018 3018 3017 3017 3016 3016 3015 3015 3014 3014 3013 3012 3012 3012 3011 3011 3010 3009 3009 3008 3007 3006 3006 3005 3005 3004 3004 3003
3081 3080 3079 3078 3077 3076 3075 3074 3074 3072 3071 3070 3069 3068 3067 3067 3066 3065 3064 3063 3062 3060 3059 3057 3055 3054 3053 3052 3051 3050 3051 3050 3049 3047 3045 3043 3041 3040 3038 3035 3033 3032 3032 3032 3032 3032 3033 3031 3030 3030 3030 3030 3029 3029 3028 3027 3026 3025 3025 3024 3024 3023 3023 3023 3022 3021 3020 3019 3019 3019 3018 3017 3017 3016 3015 3015 3014 3014 3014 3013 3013 3012 3011 3011 3010 3009 3009 3009 3008 3008 3008 3007 3006 3005 3005 3004 3004 3003 3002 3002 3001 3001 3000
3079 3078 3077 3076 3075 3074 3074 3073 3072 3071 3069 3068 3067 3066 3065 3064 3064 3063 3062 3061 3060 3058 3057 3055 3054 3052 3051 3050 3049 3048 3048 3047 3046 3044 3043 3041 3039 3037 3035 3034 3031 3029 3028 3027 3025 3026 3029 3029 3027 3027 3027 3026 3025 3025 3025 3024 3023 3023 3022 3022 3021 3020 3020 3019 3019 3018 3017 3016 3016 3015 3015 3014 3013 3013 3012 3011 3011 3011 3010 3010 3009 3009 3008 3007 3007 3006 3005 3005 3005 3005 3004 3004 3003 3003 3002 3001 3001 3000 2999 2999 2998 2998 2997
3078 3077 3075 3074 3074 3073 3072 3071 3070 3069 3068 3066 3065 3064 3063 3062 3062 3061 3060 3059 3057 3056 3055 3053 3052 3050 3048 3047 3046 3045 3044 3044 3043 3042 3040 3039 3037 3035 3032 3031 3029 3028 3026 3024 3022 3019 3021 3024 3024 3022 3023 3023 3022 3020 3021 3021 3020 3019 3019 3019 3018 3017 3017 3016 3015 3014 3013 3013 3013 3012 3012 3011 3010 3009 3009 3008 3008 3008 3007 3007 3006 3006 3005 3004 3004 3003 3002 3002 3002 3001 3001 3000 3000 3000 2999 2999 2998 2997 2997 2996 2995 2995 2994
3076 3075 3074 3073 3072 3071 3070 3069 3068 3067 3066 3065 3063 3062 3061 3060 3059 3059 3058 3056 3055 3054 3053 3051 3049 3048 3046 3044 3043 3042 3042 3042 3041 3040 3038 3036 3035 3033 3030 3028 3027 3025 3023 3022 3019 3017 3016 3018 3018 3017 3018 3019 3018 3016 3016 3017 3016 3015 3015 3015 3014 3014 3013 3012 3012 3010 3010 3009 3009 3009 3008 3008 3007 3006 3006 3005 3005 3004 3004 3004 3003 3003 3002 3001 3000 2999 2999 2999 2998 2998 2998 2997 2997 2997 2996 2996 2995 2995 2994 2993 2993 2992 2991
3075 3074 3073 3072 3070 3069 3068 3067 3066 3065 3064 3063 3062 3060 3059 3058 3057 3056 3055 3054 3053 3052 3051 3049 3048 3046 3045 3043 3041 3040 3039 3039 3039 3038 3037 3034 3033 3031 3029 3027 3025 3023 3021 3019 3017 3016 3014 3014 3012 3011 3012 3015 3014 3012 3012 3013 3012 3011 3011 3010 3010 3010 3009 3008 3008 3007 3006 3006 3006 3005 3005 3004 3004 3003 3003 3002 3001 3001 3001 3000 3000 2999 2999 2998 2997 2996 2996 2995 2995 2994 2994 2994 2994 2993 2993 2993 2993 2992 2991 2991 2990 2989 2989
3073 3072 3071 3070 3069 3068 3066 3065 3064 3063 3062 3061 3060 3058 3057 3056 3055 3054 3053 3052 3051 3050 3049 3047 3046 3044 3043 3042 3040 3038 3036 3035 3035 3035 3035 3033 3031 3029 3028 3026 3024 3023 3021 3018 3016 3014 3013 3012 3010 3006 3004 3009 3010 3009 3008 3008 3008 3008 3007 3006 3006 3006 3005 3004 3004 3003 3002 3002 3002 3002 3001 3001 3000 3000 2999 2999 2999 2998 2998 2997 2997 2996 2996 2995 2994 2993 2993 2992 2992 2991 2991 2990 2990 2990 2990 2990 2990 2989 2989 2988 2988 2987 2986
3071 3070 3069 3068 3067 3066 3064 3064 3062 3061 3060 3059 3058 3056 3055 3054 3054 3053 3051 3050 3049 3048 3046 3045 3044 3042 3041 3040 3039 3036 3034 3032 3032 3032 3032 3031 3029 3027 3026 3024 3022 3021 3019 3017 3015 3014 3011 3010 3008 3005 3001 3001 3004 3006 3006 3004 3003 3004 3004 3003 3003 3002 3001 3000 3000 2999 2999 2999 2998 2998 2997 2997 2997 2996 2996 2995 2995 2995 2994 2994 2994 2993 2992 2992 2991 2990 2989 2989 2989 2989 2988 2988 2987 2987 2987 2987 2987 2987 2986 2986 2985 2984 2984
3069 3068 3067 3066 3065 3064 3063 3062 3060 3059 3058 3057 3056 3054 3053 3052 3051 3050 3049 3048 3047 3046 3044 3044 3042 3041 3039 3038 3037 3034 3032 3030 3029 3029 3029 3027 3026 3025 3024 3022 3019 3018 3016 3015 3014 3013 3011 3009 3006 3004 3002 2997 2996 2998 3002 3002 3000 2999 2999 2999 2999 2999 2998 2997 2996 2996 2995 2995 2994 2994 2993 2993 2993 2993 2992 2992 2991 2991 2991 2990 2990 2989 2989 2988 2988 2987 2987 2986 2986 2986 2985 2985 2985 2984 2984 2984 2984 2984 2984 2983 2982 2982 2981
3067 3066 3065 3064 3063 3062 3061 3059 3058 3057 3056 3055 3054 3052 3051 3049 3048 3047 3046 3045 3044 3043 3042 3041 3040 3039 3038 3037 3035 3033 3031 3029 3027 3027 3026 3024 3022 3021 3021 3019 3017 3015 3014 3012 3011 3010 3009 3007 3005 3003 3001 2997 2993 2991 2992 2996 2998 2997 2995 2995 2995 2995 2994 2993 2992 2992 2992 2991 2991 2991 2990 2989 2989 2989 2988 2987 2987 2987 2987 2987 2986 2986 2985 2985 2984 2984 2984 2983 2983 2983 2982 2982 2982 2982 2982 2981 2981 2981 2980 2980 2979 2979 2978
3065 3064 3063 3062 3061 3060 3059 3057 3056 3055 3054 3053 3051 3050 3049 3048 3046 3045 3044 3043 3041 3040 3039 3038 3037 3036 3035 3034 3033 3031 3029 3027 3025 3024 3024 3022 3020 3018 3018 3017 3015 3013 3011 3009 3008 3006 3005 3003 3002 3002 3000 2997 2994 2990 2986 2988 2991 2993 2991 2992 2991 2990 2989 2989 2989 2988 2988 2987 2987 2987 2986 2986 2985 2985 2984 2984 2983 2983 2983 2982 2982 2982 2982 2981 2981 2980 2980 2980 2979 2979 2979 2979 2979 2979 2979 2979 2978 2978 2977 2977 2976 2976 2975